EW8702 Weather Reports


Display with metric or nautical units.
time (UTC)temp
F
wind
direction
speed
MPH
gust
MPH
rain 1hr
in
rain 24hr
in
rain mn
in
humidity
%
barometer
mb
20260901042123 57 260 0.0 2.0 0.00 0.43 0.43 86 1020.2
20260901041122 57 0 0.0 0.0 0.00 0.43 0.43 86 1020.1
20260901040122 58 260 0.0 2.0 0.00 0.43 0.43 86 1020.2
20260901035122 58 260 0.0 1.0 0.00 0.43 0.43 86 1020.2
20260901034143 58 0 0.0 0.0 0.00 0.43 0.43 86 1020.2
20260901033122 58 0 0.0 1.0 0.00 0.43 0.43 86 1020.3
20260901032122 58 259 0.0 1.0 0.00 0.43 0.43 86 1020.5
20260901031123 58 0 0.0 0.0 0.00 0.43 0.43 85 1020.1
20260901030122 58 0 0.0 0.0 0.00 0.43 0.43 85 1020.1
20260901025122 58 0 0.0 0.0 0.00 0.43 0.43 85 1020.1
20260901024123 58 260 0.0 2.0 0.01 0.43 0.43 85 1020.1
20260901023143 58 214 2.0 5.0 0.03 0.43 0.43 85 1020.2
20260901022122 58 284 1.0 4.0 0.07 0.43 0.43 84 1020.1
20260901021122 58 288 1.0 2.0 0.12 0.43 0.43 84 1020.0
20260901020143 58 296 1.0 3.0 0.15 0.43 0.43 84 1020.3
20260901015122 58 279 1.0 3.0 0.17 0.41 0.41 83 1020.5
20260901014122 58 289 1.0 4.0 0.21 0.40 0.40 83 1020.7
20260901013122 58 78 0.0 2.0 0.30 0.38 0.38 82 1020.8
20260901012122 59 106 1.0 4.0 0.34 0.34 0.34 82 1020.9
20260901011122 59 111 0.0 3.0 0.28 0.28 0.28 81 1020.8
20260901010122 59 74 1.0 4.0 0.25 0.25 0.25 81 1020.7
20260901005122 59 82 4.0 10.0 0.23 0.23 0.23 80 1020.5
20260901004122 60 68 3.0 5.0 0.18 0.18 0.18 77 1020.3
20260901003122 62 80 6.0 13.0 0.07 0.07 0.07 70 1019.8
20260901002122 69 78 11.0 19.0 0.00 0.00 0.00 56 1017.6
20260901001122 74 112 4.0 17.0 0.00 0.00 0.00 47 1016.8
20260901000122 74 115 2.0 7.0 0.00 0.00 0.00 44 1016.5
20260831235122 75 99 2.0 7.0 0.00 0.00 0.00 43 1016.4
20260831234143 76 278 0.0 2.0 0.00 0.00 0.00 47 1016.4
20260831233122 76 278 0.0 2.0 0.00 0.00 0.00 45 1016.1
20260831232122 77 0 0.0 0.0 0.00 0.00 0.00 45 1016.2
20260831231122 77 278 1.0 3.0 0.00 0.00 0.00 41 1016.2
20260831230122 77 278 1.0 3.0 0.00 0.00 0.00 45 1016.2
20260831225122 78 277 2.0 4.0 0.00 0.00 0.00 39 1016.1
20260831224122 78 277 3.0 7.0 0.00 0.00 0.00 42 1015.8
20260831223122 78 271 1.0 6.0 0.00 0.00 0.00 39 1015.8
20260831222122 79 268 1.0 3.0 0.00 0.00 0.00 39 1015.9
20260831221122 79 272 3.0 7.0 0.00 0.00 0.00 38 1015.9
20260831220122 79 277 3.0 6.0 0.00 0.00 0.00 37 1016.0
20260831215143 79 277 3.0 6.0 0.00 0.00 0.00 37 1016.1
20260831214122 80 276 2.0 6.0 0.00 0.00 0.00 35 1016.1
20260831213122 80 276 1.0 2.0 0.00 0.00 0.00 36 1016.2
20260831212122 80 278 1.0 3.0 0.00 0.00 0.00 36 1016.3
20260831211122 81 278 2.0 6.0 0.00 0.00 0.00 34 1016.4
20260831210122 81 340 2.0 6.0 0.00 0.00 0.00 33 1016.4
20260831205122 82 273 3.0 8.0 0.00 0.00 0.00 32 1016.6
20260831204122 82 308 1.0 3.0 0.00 0.00 0.00 33 1016.5
20260831203122 81 347 1.0 3.0 0.00 0.00 0.00 33 1016.7
20260831202122 80 116 1.0 3.0 0.00 0.00 0.00 34 1017.0
20260831201144 79 117 1.0 3.0 0.00 0.00 0.00 38 1017.2
20260831200122 79 186 0.0 3.0 0.00 0.00 0.00 38 1017.5
20260831195122 78 132 0.0 2.0 0.00 0.00 0.00 41 1017.8
20260831194122 78 132 0.0 2.0 0.00 0.00 0.00 41 1017.8
20260831193122 78 132 0.0 1.0 0.00 0.00 0.00 38 1018.0
20260831192123 78 120 1.0 3.0 0.00 0.00 0.00 37 1018.1
20260831191123 78 134 1.0 3.0 0.00 0.00 0.00 38 1018.2
20260831190122 77 105 2.0 4.0 0.00 0.00 0.00 40 1018.2
20260831185123 77 109 1.0 4.0 0.00 0.00 0.00 40 1018.4
20260831184122 76 112 1.0 3.0 0.00 0.00 0.00 43 1018.6
20260831183122 76 154 1.0 4.0 0.00 0.00 0.00 43 1018.9
20260831182122 76 170 2.0 6.0 0.00 0.00 0.00 43 1019.0
20260831181123 75 157 2.0 5.0 0.00 0.00 0.00 44 1019.2
20260831180144 74 160 2.0 4.0 0.00 0.00 0.00 45 1019.2
20260831175122 73 178 1.0 4.0 0.00 0.00 0.00 45 1019.4
20260831174122 72 172 2.0 3.0 0.00 0.00 0.00 47 1019.5
20260831173122 70 137 1.0 4.0 0.00 0.00 0.00 49 1019.6
20260831172143 69 173 0.0 1.0 0.00 0.00 0.00 52 1019.7
20260831171123 68 176 1.0 5.0 0.00 0.00 0.00 54 1019.7
20260831170123 67 185 0.0 2.0 0.00 0.00 0.00 52 1019.8
20260831165143 66 185 0.0 3.0 0.00 0.00 0.00 53 1019.7
20260831164122 65 0 0.0 0.0 0.00 0.00 0.00 53 1019.7
20260831163123 65 160 0.0 2.0 0.00 0.00 0.00 55 1019.8
20260831162144 63 159 0.0 1.0 0.00 0.00 0.00 55 1019.9
20260831161122 62 169 0.0 2.0 0.00 0.00 0.00 56 1020.1
20260831160123 60 209 1.0 4.0 0.00 0.00 0.00 63 1020.2
20260831155122 58 232 1.0 4.0 0.00 0.00 0.00 61 1020.2
20260831154143 56 0 0.0 0.0 0.00 0.00 0.00 69 1020.2
20260831153144 55 281 0.0 2.0 0.00 0.00 0.00 72 1020.3
20260831152122 53 0 0.0 0.0 0.00 0.00 0.00 76 1020.7
20260831151143 51 281 0.0 3.0 0.00 0.00 0.00 79 1020.6
20260831150122 50 282 0.0 1.0 0.00 0.00 0.00 80 1020.6
20260831145143 50 284 0.0 4.0 0.00 0.00 0.00 82 1020.8
20260831144122 49 0 0.0 0.0 0.00 0.00 0.00 83 1020.8
20260831143122 48 0 0.0 0.0 0.00 0.00 0.00 82 1020.8
20260831142122 48 0 0.0 0.0 0.00 0.00 0.00 82 1020.8
20260831141122 47 0 0.0 0.0 0.00 0.00 0.00 82 1020.8
20260831140122 47 0 0.0 0.0 0.00 0.00 0.00 81 1020.6
20260831135122 47 0 0.0 0.0 0.00 0.00 0.00 81 1020.5
20260831134143 46 0 0.0 0.0 0.00 0.00 0.00 80 1020.4
20260831133122 46 0 0.0 0.0 0.00 0.00 0.00 79 1020.3
20260831132122 47 0 0.0 0.0 0.00 0.00 0.00 79 1020.1
20260831131122 47 0 0.0 0.0 0.00 0.00 0.00 79 1020.1
20260831130122 47 0 0.0 0.0 0.00 0.00 0.00 79 1020.1
20260831125143 47 0 0.0 0.0 0.00 0.00 0.00 79 1020.1
20260831124145 47 0 0.0 0.0 0.00 0.00 0.00 78 1020.1
20260831122122 47 0 0.0 0.0 0.00 0.00 0.00 78 1020.0
20260831121122 47 0 0.0 0.0 0.00 0.00 0.00 78 1020.0
20260831120122 47 0 0.0 0.0 0.00 0.00 0.00 78 1020.1
20260831115122 48 0 0.0 0.0 0.00 0.00 0.00 78 1020.1
20260831114122 48 0 0.0 0.0 0.00 0.00 0.00 78 1020.0
20260831113122 48 290 0.0 1.0 0.00 0.00 0.00 78 1019.9
20260831112122 48 0 0.0 0.0 0.00 0.00 0.00 78 1019.9
20260831111122 48 0 0.0 0.0 0.00 0.00 0.00 77 1019.9
20260831110143 47 0 0.0 0.0 0.00 0.00 0.00 75 1019.7
20260831105122 48 290 0.0 1.0 0.00 0.00 0.00 75 1019.7
20260831104122 48 290 1.0 2.0 0.00 0.00 0.00 75 1019.7
20260831103122 48 290 0.0 1.0 0.00 0.00 0.00 75 1019.8
20260831102122 49 0 0.0 0.0 0.00 0.00 0.00 74 1019.8
20260831101122 49 290 0.0 1.0 0.00 0.00 0.00 74 1019.8
20260831100122 49 291 0.0 2.0 0.00 0.00 0.00 73 1019.6
20260831095122 49 0 0.0 0.0 0.00 0.00 0.00 72 1019.6
20260831094122 49 0 0.0 0.0 0.00 0.00 0.00 71 1019.6
20260831093143 50 0 0.0 0.0 0.00 0.00 0.00 71 1019.6
20260831092122 50 0 0.0 0.0 0.00 0.00 0.00 71 1019.6
20260831091122 50 0 0.0 0.0 0.00 0.00 0.00 70 1019.4
20260831090122 50 0 0.0 0.0 0.00 0.00 0.00 70 1019.4
20260831085143 50 0 0.0 0.0 0.00 0.00 0.00 69 1019.3
20260831084143 51 0 0.0 0.0 0.00 0.00 0.00 69 1019.3
20260831083122 51 0 0.0 0.0 0.00 0.00 0.00 69 1019.4
20260831082122 50 0 0.0 0.0 0.00 0.00 0.00 68 1019.3
20260831081122 50 326 0.0 1.0 0.00 0.00 0.00 68 1019.4
20260831080122 50 322 2.0 3.0 0.00 0.00 0.00 68 1019.4
20260831075143 51 314 0.0 2.0 0.00 0.00 0.00 68 1019.5
20260831074122 51 291 0.0 1.0 0.00 0.00 0.00 68 1019.5
20260831073122 51 291 0.0 1.0 0.00 0.00 0.00 68 1019.4
20260831072122 52 291 1.0 2.0 0.00 0.00 0.00 67 1019.5
20260831071122 52 291 1.0 3.0 0.00 0.00 0.00 67 1019.4
20260831070122 53 323 0.0 1.0 0.00 0.00 0.00 65 1019.4
20260831065122 53 302 0.0 2.0 0.00 0.00 0.00 65 1019.3
20260831064122 53 289 0.0 2.0 0.00 0.00 0.00 65 1019.3
20260831063122 54 0 0.0 0.0 0.00 0.00 0.00 64 1019.2
20260831062144 54 291 0.0 2.0 0.00 0.00 0.00 63 1019.2
20260831061122 54 0 0.0 0.0 0.00 0.00 0.00 62 1019.1
20260831060122 54 291 0.0 1.0 0.00 0.00 0.00 61 1019.2
20260831055122 55 0 0.0 0.0 0.00 0.00 0.00 61 1019.2
20260831054143 56 291 0.0 1.0 0.00 0.00 0.00 59 1019.2
20260831053122 56 0 0.0 0.0 0.00 0.00 0.00 57 1019.1
20260831052122 57 291 0.0 1.0 0.00 0.00 0.00 56 1019.0
20260831051122 57 290 1.0 2.0 0.00 0.00 0.00 55 1019.0
20260831050122 57 291 0.0 2.0 0.00 0.00 0.00 53 1019.0
20260831045122 57 290 0.0 1.0 0.00 0.00 0.00 53 1019.0